Location: Finney State Fishing Lake and Wildlife Area
(38.1834°N, 100.3310°W)
Time: 17:29:37
(UTC+00:00)

BlueWalker 3 - Pass Details

Date: 11 December 2022
Orbit: 499 x 517 km, 53.2° (Epoch: 29 January)

Event Time Altitude Azimuth Distance (km) Brightness Sun altitude
Rises 00:43:29 0° 314° (NW) 2,625 6.0 -15.7°
Reaches altitude 10° 00:45:43 10° 318° (NW) 1,732 5.0 -16.1°
Maximum altitude 00:49:35 59° 39° (NE) 589 1.9 -16.8°
Enters shadow 00:51:02 34° 104° (ESE) 842 2.6 -17.1°
